This demonstration page uses our WeatherBlox Daily Observations layout. Learn more.

Left ArrowRight Arrow

40.92945, -100.16068

Hourly Observations for September 27, 2019

Temp ( °F °C ) Dew Point ( °F °C ) Humidity (%) Winds ( mph kmh ) Pressure ( in mb ) Visibility ( mi km ) Precip ( " mm )
12:15 am 00:15 Clear 62 16.6 59 15.2 92 92 SE 5 7 29.58 1002 10 16 0.00 0.00
12:35 am 00:35 Clear 62 16.8 60 15.3 91 91 SE 7 11 29.57 1001 10 16 0.00 0.00
12:55 am 00:55 Clear 62 16.6 60 15.3 92 92 SE 7 11 29.56 1001 10 16 0.00 0.00
1:15 am 01:15 Clear 62 16.7 60 15.5 93 93 SE 8 13 29.56 1001 10 16 0.00 0.00
1:35 am 01:35 Partly Cloudy 62 16.5 60 15.4 93 93 ESE 5 7 29.55 1001 10 16 0.00 0.00
1:55 am 01:55 Mostly Cloudy 62 16.4 60 15.6 95 95 SE 5 7 29.55 1001 10 16 0.00 0.00
2:15 am 02:15 Cloudy 62 16.6 60 15.8 95 95 SSE 7 11 29.54 1000 10 16 0.00 0.00
2:35 am 02:35 Cloudy 62 16.5 60 15.8 96 96 S 10 17 29.53 1000 10 16 0.00 0.00
2:55 am 02:55 Cloudy 61 16.3 60 15.8 97 97 S 9 15 29.54 1000 10 16 0.00 0.00
3:15 am 03:15 Cloudy 62 16.4 61 16 98 98 SW 6 9 29.54 1000 7 11 0.00 0.00
3:35 am 03:35 Cloudy 62 16.4 61 15.9 97 97 NNW 8 13 29.57 1001 7 11 0.00 0.00
3:55 am 03:55 Cloudy 61 16 60 15.5 97 97 N 5 7 29.61 1003 10 16 0.00 0.00
4:15 am 04:15 Partly Cloudy 60 15.3 59 15 98 98 ESE 3 6 29.58 1002 10 16 0.00 0.00
4:35 am 04:35 Clear 58 14.7 58 14.4 98 98 Calm 29.60 1002 7 11 0.00 0.00
4:55 am 04:55 Clear with Mist and Fog 57 13.8 57 13.8 100 100 Calm 29.61 1003 5 8 0.00 0.00
5:15 am 05:15 Clear with Mist and Fog 56 13.6 56 13.6 100 100 N 6 9 29.61 1003 5 8 0.00 0.00
5:35 am 05:35 Clear with Mist and Fog 56 13.3 56 13.3 100 100 N 6 9 29.62 1003 5 8 0.00 0.00
5:55 am 05:55 Clear 59 15 54 12.4 85 85 N 13 20 29.62 1003 10 16 0.00 0.00
6:15 am 06:15 Clear 58 14.5 52 11 80 80 N 8 13 29.64 1004 10 16 0.00 0.00
6:35 am 06:35 Clear 57 14 51 10.3 79 79 N 8 13 29.65 1004 10 16 0.00 0.00
6:55 am 06:55 Clear 56 13.5 49 9.3 76 76 N 10 17 29.66 1004 10 16 0.00 0.00
7:15 am 07:15 Clear 56 13.5 48 8.9 74 74 N 9 15 29.66 1004 10 16 0.00 0.00
7:35 am 07:35 Sunny 56 13.5 47 8.5 72 72 N 13 20 29.67 1005 10 16 0.00 0.00
7:55 am 07:55 Sunny 56 13.4 47 8.3 71 71 N 12 19 29.66 1004 10 16 0.00 0.00
8:15 am 08:15 Sunny 57 13.7 47 8.1 69 69 N 14 22 29.67 1005 10 16 0.00 0.00
8:35 am 08:35 Sunny 58 14.2 47 8.1 67 67 NNW 8 13 29.71 1006 10 16 0.00 0.00
8:55 am 08:55 Partly Cloudy with Light Rain 57 14 47 8.6 70 70 N 13 20 29.68 1005 10 16 0.00 0.00
9:15 am 09:15 Sunny 58 14.5 47 8.6 68 68 N 12 19 29.68 1005 10 16 0.00 0.00
9:35 am 09:35 Sunny 58 14.6 47 8.2 66 66 N 8 13 29.69 1005 10 16 0.00 0.00
9:55 am 09:55 Sunny 60 15.5 47 8.2 62 62 N 7 11 29.71 1006 10 16 0.00 0.00
10:15 am 10:15 Sunny 61 16.2 47 8.5 61 61 NNE 12 19 29.70 1006 10 16 0.00 0.00
10:35 am 10:35 Sunny 62 16.7 47 8.1 57 57 NNE 15 24 29.70 1006 10 16 0.00 0.00
10:55 am 10:55 Sunny 64 17.9 47 8.2 53 53 N 16 26 29.70 1006 10 16 0.00 0.00
11:15 am 11:15 Sunny 63 17.3 47 8.1 55 55 N 10 17 29.73 1007 10 16 0.00 0.00
11:35 am 11:35 Sunny 66 18.7 48 8.8 53 53 N 13 20 29.70 1006 10 16 0.00 0.00
11:55 am 11:55 Sunny 67 19.2 47 8.2 49 49 NNE 13 20 29.70 1006 10 16 0.00 0.00
12:15 pm 12:15 Sunny 67 19.4 48 8.8 50 50 N 13 20 29.71 1006 10 16 0.00 0.00
12:35 pm 12:35 Sunny 68 20.1 46 7.8 45 45 NE 14 22 29.69 1005 10 16 0.00 0.00
12:55 pm 12:55 Sunny 68 20 46 7.9 46 46 NNE 13 20 29.69 1006 10 16 0.00 0.00
1:15 pm 13:15 Sunny 68 20 46 8 46 46 NNE 13 20 29.70 1006 10 16 0.00 0.00
1:35 pm 13:35 Sunny 68 20 46 7.9 46 46 N 13 20 29.69 1006 10 16 0.00 0.00
1:55 pm 13:55 Sunny 70 21.2 46 7.9 42 42 N 12 19 29.69 1006 10 16 0.00 0.00
2:15 pm 14:15 Sunny 71 21.7 47 8.6 43 43 NNE 10 17 29.69 1005 10 16 0.00 0.00
2:35 pm 14:35 Sunny 70 21 46 7.8 43 43 NNE 9 15 29.69 1006 10 16 0.00 0.00
2:55 pm 14:55 Sunny 71 21.4 47 8.1 43 43 N 12 19 29.69 1005 10 16 0.00 0.00
3:15 pm 15:15 Sunny 70 21 47 8.5 45 45 N 13 20 29.69 1006 10 16 0.00 0.00
3:35 pm 15:35 Partly Cloudy 69 20.6 48 8.7 47 47 N 10 17 29.70 1006 10 16 0.00 0.00
3:55 pm 15:55 Sunny 69 20.4 48 9.1 48 48 NNE 13 20 29.70 1006 10 16 0.00 0.00
4:15 pm 16:15 Sunny 69 20.3 48 9.1 49 49 NNE 10 17 29.71 1006 10 16 0.00 0.00
4:35 pm 16:35 Sunny 69 20.8 48 9.1 47 47 NE 13 20 29.70 1006 10 16 0.00 0.00
4:55 pm 16:55 Sunny 69 20.5 46 7.8 44 44 NE 15 24 29.71 1006 10 16 0.00 0.00
5:15 pm 17:15 Sunny 69 20.8 46 7.9 44 44 NNE 16 26 29.71 1006 10 16 0.00 0.00
5:35 pm 17:35 Sunny 68 20.1 42 5.8 39 39 NE 14 22 29.71 1006 10 16 0.00 0.00
5:55 pm 17:55 Sunny 67 19.7 44 6.7 43 43 NE 12 19 29.72 1006 10 16 0.00 0.00
6:15 pm 18:15 Sunny 66 19.1 46 7.6 47 47 NE 9 15 29.73 1007 10 16 0.00 0.00
6:35 pm 18:35 Sunny 65 18.6 46 7.9 50 50 NE 9 15 29.74 1007 10 16 0.00 0.00
6:55 pm 18:55 Sunny 65 18.2 47 8.2 52 52 NE 9 15 29.77 1008 10 16 0.00 0.00
7:15 pm 19:15 Sunny 64 17.8 47 8.1 53 53 NE 12 19 29.78 1009 10 16 0.00 0.00
7:35 pm 19:35 Clear 62 16.9 46 8 56 56 NE 8 13 29.80 1009 10 16 0.00 0.00
7:55 pm 19:55 Clear 61 15.9 46 7.7 58 58 NE 7 11 29.83 1010 10 16 0.00 0.00
8:15 pm 20:15 Clear 60 15.3 47 8.1 62 62 NNE 6 9 29.84 1011 10 16 0.00 0.00
8:35 pm 20:35 Clear 58 14.4 47 8.5 68 68 NNE 7 11 29.86 1011 10 16 0.00 0.00
8:55 pm 20:55 Clear 57 14 49 9.2 73 73 NNE 8 13 29.87 1012 10 16 0.00 0.00
9:15 pm 21:15 Clear 57 13.9 49 9.3 74 74 NNE 9 15 29.89 1012 10 16 0.00 0.00
9:35 pm 21:35 Clear 56 13.5 49 9.4 76 76 N 9 15 29.89 1012 10 16 0.00 0.00
9:55 pm 21:55 Clear 56 13.2 49 9.3 77 77 NNE 10 17 29.89 1012 10 16 0.00 0.00
10:15 pm 22:15 Clear 56 13.2 48 9.1 76 76 N 14 22 29.91 1013 10 16 0.00 0.00
10:35 pm 22:35 Clear 56 13.2 48 9 76 76 N 10 17 29.93 1014 10 16 0.00 0.00
10:55 pm 22:55 Clear 55 13 48 8.8 76 76 NNE 13 20 29.93 1014 10 16 0.00 0.00
11:15 pm 23:15 Clear 55 12.8 48 9 78 78 NNE 10 17 29.94 1014 10 16 0.00 0.00
11:35 pm 23:35 Mostly Cloudy 55 13 48 9.1 77 77 NNE 12 19 29.93 1014 10 16 0.00 0.00
11:55 pm 23:55 Partly Cloudy 55 12.8 49 9.3 79 79 NE 9 15 29.95 1014 10 16 0.00 0.00

Powered by AerisWeather